Regional Weather Roundup
Issued by NWS Charleston, SC

Current Version | Previous Version | Graphics & Text | Print | Product List | Glossary On
Versions: 1 2 3 4 5 6 7 8 9 10 11 12 13 14 15 16 17 18 19 20 21 22 23 24 25 26 27 28 29 30 31 32 33 34 35 36 37 38 39 40 41 42 43 44 45 46 47 48 49 50
000
ASUS42 KCHS 231313
RWRCHS

REGIONAL WEATHER ROUNDUP
NATIONAL WEATHER SERVICE CHARLESTON SC
900 AM EDT SAT JUL 23 2016

NOTE: "FAIR" INDICATES FEW OR NO CLOUDS BELOW 12,000 FEET WITH NO
SIGNIFICANT WEATHER AND/OR OBSTRUCTIONS TO VISIBILITY.

NOT ALL STATIONS ARE QUALITY CONTROLLED. USE DATA WITH CAUTION...
ESPECIALLY DEWPOINT OBSERVATIONS.

SCZ027-030-031-034>040-042>050-231400-
...SOUTHEAST SOUTH CAROLINA...

CITY           SKY/WX    TMP DP  RH WIND       PRES   REMARKS
N CHARLESTON   MOSUNNY   83  71  67 W7        30.02R
WATERFRONT PRK   N/A     82  75  79 VRB3      30.00R
MOUNT PLEASANT FAIR      82  75  78 CALM      30.02S
JOHNS ISLAND   FAIR      84  77  79 CALM      30.02S HX  94
PINOPOLIS        N/A     81  75  83 W7        29.95R
MONCKS CORNER  FAIR      79  70  73 SW3       30.02R
SUMMERVILLE    FAIR      81  77  89 W3        30.03R
BEAUFORT MCAS  SUNNY     83  73  72 SW7       30.02R
BEAUFORT ARPT  FAIR      82  73  74 W5        30.02R
HILTON HEAD IS SUNNY     88  75  66 SW5       30.04  HX  97
WALTERBORO     SUNNY     82  73  74 CALM      30.03R
ALLENDALE      FAIR      81  73  78 VRB3      30.02R

...SOUTHERN MIDLANDS AND PEE DEE...

CITY           SKY/WX    TMP DP  RH WIND       PRES   REMARKS
GEORGETOWN     PTSUNNY   77  73  88 E3        30.04R
KINGSTREE      FAIR      81  72  74 SW6       30.00F
ORANGEBURG     SUNNY     81  74  79 SW3       30.02R
BARNWELL       NOT AVBL
AIKEN          FAIR      81  72  74 W5        30.06R
MANNING        FAIR      81  73  78 SW3       30.01S
COLUMBIA       MOSUNNY   85  73  67 SW5       30.00S HX  91
SUMTER         SUNNY     82  73  74 SW6       29.99R HAZE
FLORENCE       SUNNY     83  74  74 W7        30.00S
MYRTLE BEACH   PTSUNNY   81  70  69 VRB5      30.04R
N MYRTLE BEACH CLOUDY    81  74  79 S3        30.02S

$$

GAZ063-065-086>088-099>101-113>116-118-119-134>141-150-231400-
...SOUTHEAST GEORGIA...

CITY           SKY/WX    TMP DP  RH WIND       PRES   REMARKS
SAVANNAH ARPT  MOSUNNY   82  72  71 SW7       30.03S
HUNTER AAF     SUNNY     82  77  85 SW6       30.01R HX  91
FORT STEWART   SUNNY     82  72  72 SW3       30.01S
STATESBORO     SUNNY     81  75  83 W3        30.03R
SYLVANIA       NOT AVBL
CLAXTON        FAIR      80  74  82 SW3       30.03R HAZE

...CSRA...CENTRAL AND FAR SOUTHEAST GEORGIA...

CITY           SKY/WX    TMP DP  RH WIND       PRES   REMARKS
THOMSON        SUNNY     85  76  75 W3        30.07S HX  94
AUGUSTA-BUSH   SUNNY     81  73  76 CALM      30.02R
AUGUSTA-DANIEL SUNNY     84  73  69 CALM      30.03R HX  90
SWAINSBORO     FAIR      81  73  78 CALM      30.05R
VIDALIA        SUNNY     81  73  78 W5        30.05R
EASTMAN        FAIR      81  76  84 CALM      30.07R
HAZLEHURST     FAIR      82  76  82 CALM      30.04R HX  90
ALMA           SUNNY     82  73  74 CALM      30.04R
WAYCROSS       SUNNY     82  76  82 SW6       30.05R
JESUP          FAIR      82  77  83 CALM      30.04S HX  91
BAXLEY         FAIR      79  79 100 CALM      30.04R
BRUNSWICK      SUNNY     82  73  74 SW3       30.05R
SAINT SIMONS   SUNNY     82  72  71 SW6       30.04R

$$

SCZ027-028-034-036>038-045-046-048>050-GAZ119-141-231400-
...LAKE AND SUPPLEMENTAL COASTAL OBSERVATIONS...

STATION/POSITION TIME  TEMP    WIND        PRES    WAVE   SWELL
                       AIR SEA DIR/SP/G            HT/PER HT/PER/DIR
                 (UTC) (F)     (DEG/KT/KT) (MB)    (FT/S) (FT/S/D)
WINYAH BAY       NOT AVBL
LAKE MURRAY      1200   81     260/  5/  7 1015.6S
ACE BASIN NERRS  NOT AVBL
FORT PULASKI     1200   80 87  260/  4/  6 1017.0R
SAPELO ISLAND    1200   81     210/  3     1017.0S

$$

ANZ835-935-AMZ111-154-330-350-352-354-370-450-454-472-231400-
...C-MAN AND BUOY OBSERVATIONS...

STATION/POSITION TIME  TEMP    WIND        PRES    WAVE   SWELL
                       AIR SEA DIR/SP/G            HT/PER HT/PER/DIR
                 (UTC) (F)     (DEG/KT/KT) (MB)    (FT/S) (FT/S/D)
BUOY 41004       1250   85 86  260/  8/ 10 1016.1R   3/ 9   3/140/ 9
BUOY 41008       1250   83 86  260/  6/ 10 1016.8R   2/ 8   2/100/ 8
FOLLY BEACH CMAN 1200   81     260/  3/  5 1016.5R
CAPERS NEARSHORE 1208   83 83  270/  8/ 10 1016.3R
FRIPP NEARSHORE  NOT AVBL


STATION/POSITION TIME  TEMP    WIND        PRES    WAVE   SWELL
                       AIR SEA DIR/SP/G            HT/PER HT/PER/DIR
                 (UTC) (F)     (DEG/KT/KT) (MB)    (FT/S) (FT/S/D)
5E ST. MARYS GA  1201      86                N/A     3/ 8
FRYING PAN BUOY  1200   85 85  210/  8/ 10 1016.0S
BUOY 41025       1250   83 86  240/ 10/ 12 1016.5R   2/ 9   2/130/ 9
CAPE LOOKOUT NC  1300   84     210/  8/  9 1016.2R
BUOY 41002       1250   83 84   60/  2/  2 1017.3R   3/ 9   3/110/ 9
BUOY 41010       1220   85 86   10/  2/  4 1017.0R
ST AUGUSTINE FL  1300   82 86  330/  4/  5 1018.1R


$$




USA.gov is the U.S. government's official web portal to all federal, state and local government web resources and services.